Miscellaneous Local Product
Issued by NWS North Platte, NE

Home | Current Version | Previous Version | Graphics & Text | Print | Product List | Glossary On
Versions: 1 2 3 4 5 6 7 8 9 10 11 12 13 14 15 16 17 18 19 20 21 22 23 24 25 26 27 28 29 30 31 32 33 34 35 36 37 38 39 40 41 42 43 44 45 46 47 48 49 50
000
AXUS43 KLBF 241310
MISLBF


WESTERN AND NORTH CENTRAL NEBRASKA HOURLY WEATHER ROUNDUP
NATIONAL WEATHER SERVICE NORTH PLATTE NE
800 AM CDT SUN SEP 24 2017

NOTE: "FAIR" INDICATES FEW OR NO CLOUDS BELOW 12,000 FEET WITH NO
SIGNIFICANT WEATHER AND/OR OBSTRUCTIONS TO VISIBILITY.

NOTE: STATIONS NOT REPORTING VARIABLES SUCH AS SKY/WEATHER OR
PRESSURE ARE PROVIDED BY RAWS AND APRS NETWORKS AND ARE NOT UNDER
NATIONAL WEATHER SERVICE QUALITY CONTROL.

...OBSERVATIONS IN AND NEAR THE EASTERN PANHANDLE OF NEBRASKA...

CITY           SKY/WX    TMP DP  RH WIND       PRES   REMARKS
PINE RIDGE     CLOUDY    45  45 100 N8        30.00S
GORDON         CLOUDY    45  44  95 N12       29.98R
CHADRON        CLOUDY    45  43  93 N5        30.00R
ALLIANCE       CLOUDY    44  43  96 N10       29.97S
SIDNEY         CLOUDY    44  42  93 N12       29.98R
$$

...OBSERVATIONS IN NORTHERN NEBRASKA AND FAR SOUTHERN SOUTH DAKOTA...

CITY           SKY/WX    TMP DP  RH WIND       PRES   REMARKS
WINNER         LGT RAIN  53  51  93 W6        29.91R
VALENTINE      LGT RAIN  51  50  96 W5        29.94R
THEDFORD       RAIN      49  49  97 N6        29.91F
AINSWORTH      RAIN      50  50 100 NW7       29.92S
O`NEILL        RAIN      54  54 100 NW9       29.89S
ORD            LGT RAIN  59  56  89 NW5       29.87S
BROKEN BOW     HVY RAIN  53  53 100 N12       29.89R
HALSEY           N/A     48  48 100 NW5         N/A
BUTTE            N/A     51  50  97 NW5         N/A
CHAMBERS         N/A     55  54  98 CALM        N/A
EWING            N/A     58  57  97 CALM        N/A
$$

...OBSERVATIONS IN SOUTHWEST NEBRASKA AND FAR NORTHEAST COLORADO...

CITY           SKY/WX    TMP DP  RH WIND       PRES   REMARKS
WRAY           CLOUDY   N/A N/A N/A NW13      29.96S HAZE
HOLYOKE        CLOUDY    46  45  93 NW13      29.97R
IMPERIAL       CLOUDY    49  48  97 NW14      29.93S
OGALLALA       CLOUDY    51  48  90 N12       29.94R
NORTH PLATTE   CLOUDY    51  49  92 W12       29.94R
MCCOOK         RAIN      53  52  96 W10       29.92R
LEXINGTON      LGT RAIN  61  60  94 NW5       29.87R
STAPLETON        N/A     47  46  98 NE3G12      N/A
CALLAWAY         N/A     53  52  97 CALM        N/A
$$

...OBSERVATIONS IN CENTRAL LINCOLN COUNTY AREA...

CITY           SKY/WX    TMP DP  RH WIND       PRES   REMARKS
N.P. AIRPORT   CLOUDY    51  49  92 W12       29.94R
N.P. DOWNTOWN    N/A     50  49  95 CALM        N/A
N.P. SOUTHEAST   N/A     49  48  97 W3          N/A
N.P. HILLCREST   N/A     49  49  99 W8          N/A
$$

...SOME OBSERVATIONS FROM AROUND THE REGION...

CITY           SKY/WX    TMP DP  RH WIND       PRES   REMARKS
DENVER         CLOUDY    46  42  86 SE3       29.99R
LIMON            N/A    N/A N/A N/A MISG      29.97S
ASPEN          CLOUDY    32  30  92 CALM      29.90S
LARAMIE        CLOUDY    39  36  89 SE7       29.97R WCI  34
CASPER         CLOUDY    36  35  96 NE12      30.05R WCI  28
CHEYENNE       LGT RAIN  41  40  96 NE9       29.99S FOG
SCOTTSBLUFF    CLOUDY    46  42  86 CALM      30.01R
GRAND ISLAND   PTCLDY    67  64  90 S10       29.87R
OMAHA          MOCLDY    71  65  81 SE9       29.92S
SIOUX FALLS    CLOUDY    70  66  87 S10       29.87S
PIERRE         RAIN      51  50  96 NW12      29.89R
RAPID CITY     CLOUDY    45  43  93 N16       30.01S
BISMARCK       RAIN      49  48  97 NW9       29.97S FOG
KANSAS CITY    PTCLDY    71  66  84 S9        29.97R
HILL CITY      LGT RAIN  65  63  93 SW6       29.89R
WICHITA        MOCLDY    71  66  84 SE10      29.92R
DODGE CITY     LGT RAIN  62  60  93 W5        29.94R FOG
OKLAHOMA CITY  MOCLDY    67  65  93 S6        29.93R
DALLAS         MOCLDY    74  70  87 S6        29.90R
$$




USA.gov is the U.S. government's official web portal to all federal, state and local government web resources and services.